Regional Weather Roundup
Issued by NWS

Home | Current Version | Previous Version | Graphics & Text | Print | Product List | Glossary Off
Versions: 1 2 3 4 5 6 7 8 9 10 11 12 13 14 15 16 17 18 19 20 21 22 23 24 25 26 27 28 29 30 31 32 33 34 35 36 37 38 39 40 41 42 43 44 45 46 47 48 49 50

000
ASUS43 KMKX 051611
RWRWI

WISCONSIN REGIONAL WEATHER ROUNDUP
NATIONAL WEATHER SERVICE MILWAUKEE/SULLIVAN WI
1100 AM CDT TUE MAY 05 2015

NOTE: "FAIR" INDICATES FEW OR NO CLOUDS BELOW 12,000 FEET WITH NO
SIGNIFICANT WEATHER AND/OR OBSTRUCTIONS TO VISIBILITY.

WIZ001-002-006>008-014>016-023>028-051700-
NORTHWEST WISCONSIN

CITY           SKY/WX    TMP DP  RH WIND       PRES   REMARKS
SUPERIOR ARPT  SUNNY     55  32  42 E7        30.27F
ASHLAND        SUNNY     68  32  26 E7        30.28F
HAYWARD        SUNNY     66  29  24 E14G20    30.27S
SIREN          SUNNY     67  19  15 S13G20    30.24F
CUMBERLAND     SUNNY     63  19  19 SE15      30.25F
RICE LAKE      SUNNY     65  15  14 SE16      30.27F
CHETEK         SUNNY     64  24  21 E10G21    30.26S
LADYSMITH      SUNNY     66  17  15 SE12      30.29S
EAU CLAIRE     SUNNY     66  26  22 SE14G21   30.24F
MENOMONIE      SUNNY     64  31  29 E12G20    30.25S
NEW RICHMOND   SUNNY     64  29  26 SE10G20   30.23S
OSCEOLA        SUNNY     65  31  27 SE12G17   30.25S
$$

WIZ003>005-009-010-017-018-051700-
NORTH CENTRAL WISCONSIN

CITY           SKY/WX    TMP DP  RH WIND       PRES   REMARKS
MANITOWISH WTR SUNNY     63  29  27 SE8       30.30F
ARBOR VITAE    SUNNY     63  31  30 SE8       30.30F
WOODRUFF       SUNNY     63  31  30 SE8       30.30F
RHINELANDER    SUNNY     64  28  25 E10       30.31S
EAGLE RIVER    SUNNY     64  28  26 E9        30.31F
LAND O LAKES   SUNNY     64  21  19 E10       30.32F
PHILLIPS       SUNNY     64  26  24 SE10      30.28F
TOMAHAWK       SUNNY     64  19  18 CALM      30.30S
MEDFORD        SUNNY     61  21  21 E13G22    30.29S
MERRILL        SUNNY     64  22  20 E10G20    30.30F
$$

WIZ029-030-035-036-043>047-051700-
CENTRAL WISCONSIN

CITY           SKY/WX    TMP DP  RH WIND       PRES   REMARKS
WAUSAU         SUNNY     63  18  17 E17G26    30.29S
MOSINEE        SUNNY     61  21  21 E16       30.31S
MARSHFIELD     MOSUNNY   63  30  28 E13       30.29S
STEVENS POINT  MOSUNNY   60  26  26 E14G22    30.31S
WAUPACA        MOSUNNY   61  32  33 E8        30.32R
WAUTOMA        PTSUNNY   56  38  50 NE9       30.31R
WISC RAPIDS    NOT AVBL
CAMP DOUGLAS   PTSUNNY   55  45  67 E9        30.28R
$$

WIZ011>013-019>022-031-037>040-048>050-051700-
NORTHEAST WISCONSIN

CITY           SKY/WX    TMP DP  RH WIND       PRES   REMARKS
ANTIGO         SUNNY     60  29  31 SE10      30.32S
SHAWANO        SUNNY     64  30  27 NE12      30.33S
OCONTO         MOSUNNY   56  35  44 E6        30.34S
STURGEON BAY   MOSUNNY   57  30  35 E9        30.36F
GREEN BAY      MOSUNNY   59  36  42 NE12      30.32S
MANITOWOC      CLOUDY    52  36  54 NE7       30.33R
APPLETON       PTSUNNY   55  32  41 NE9       30.32R
CLINTONVILLE   MOSUNNY   63  23  22 SE13G18   30.31S
OSHKOSH        CLOUDY    55  38  52 E7        30.31R
$$

WIZ032>034-041-042-053>061-051700-
SOUTHWEST WISCONSIN

CITY           SKY/WX    TMP DP  RH WIND       PRES   REMARKS
LA CROSSE      LGT RAIN  54  49  83 SE10      30.26R
SPARTA         CLOUDY    55  42  62 E7        30.28S
VIROQUA        CLOUDY    50  50 100 E15       30.26R
BOSCOBEL       RAIN      51  48  89 NE7       30.26S FOG
PRAIRIE DU CHI RAIN      51  49  94 E8        30.24R
PLATTEVILLE    CLOUDY    51  50  95 E16       30.23S
$$

WIZ056-057-062-063-064-067-068-051700-
SOUTH CENTRAL WISCONSIN

CITY           SKY/WX    TMP DP  RH WIND       PRES   REMARKS
REEDSBURG      DRIZZLE   49  47  93 NE6       30.28R
BARABOO/DELLS  NOT AVBL
LONE ROCK      LGT RAIN  52  48  86 E13       30.27R
MINERAL POINT  LGT RAIN  52  50  93 E14       30.24S
MADISON        LGT RAIN  51  48  89 E10       30.28S FOG
MIDDLETON      CLOUDY    51  50  93 E8        30.28S
WATERTOWN      DRIZZLE   51  51 100 E8        30.29R
MONROE         DRIZZLE   50  50 100 NE8       30.25R
JANESVILLE     LGT RAIN  52  50  93 E8        30.26R
$$

WIZ051-052-058>065-066-070>072-051700-
SOUTHEAST WISCONSIN

CITY           SKY/WX    TMP DP  RH WIND       PRES   REMARKS
MILWAUKEE      LGT RAIN  48  44  86 E10       30.31R
WAUKESHA       LGT RAIN  48  46  93 E12       30.30R
MILWAUKEE/TIMM LGT RAIN  48  45  87 E13       30.31R
RACINE         LGT RAIN  47  43  86 E15       30.30R FOG
BURLINGTON     RAIN      47  46  96 E8        30.28R
KENOSHA        LGT RAIN  47  45  93 NE13      30.28R
FOND DU LAC    CLOUDY    55  40  56 E8        30.31R
SHEBOYGAN      CLOUDY    52  39  61 E7        30.31R
WEST BEND      LGT RAIN  50  45  81 E10       30.31R
JUNEAU         DRIZZLE   51  47  86 E14       30.30R
$$

LSZ147-162-051700-
LAKE SUPERIOR

STATION/POSITION TIME  TEMP    WIND        PRES    WAVE
                       AIR SEA DIR/SP/G            HT/PER
                 (UTC) (F)     (DEG/KT/KT) (MB)    (FT/S)
W MID LAKE BUOY  1550   41 36  150/  4/  4 1027.4F   0
DEVILS ISLAND    1600   49      60/  7/  8 1026.6F
PORT WING        1500   44      10/  4/  5 1026.1F
SAXON HARBOR     1500   47        CALM     1025.7
$$

LMZ867-665-643>646-051700-
LAKE MICHIGAN

STATION/POSITION TIME  TEMP    WIND        PRES    WAVE
                       AIR SEA DIR/SP/G            HT/PER
                 (UTC) (F)     (DEG/KT/KT) (MB)    (FT/S)
CHAMBERS ISLAND  1500   48     360/  7/  8 1027.8S
NORTHPORT PIER   1500   46     150/  4/  5 1027.8R
SISTER BAY       1502   57     100/ 13/ 18   N/A
KEWAUNEE LAKESHO 1500   45      30/ 11/ 15 1026.1R
SHEBOYGAN LAKESH 1600   45      10/  5/  5 1027.3R
PORT WASHINGTON  1540   47      40/  8/ 10 1026.8R
ATWATER BUOY     1500   45      40/  6/  8 1026.6R
MILWAUKEE LAKESH 1500   45      40/  7/  8   N/A
KENOSHA   LAKESH 1600   44      10/ 11/ 12 1025.1R
$$

TC  - TEMPERATURE IN CELSIUS
VSB - VISIBILITY IN STATUTE MILES
WCI - WIND CHILL INDEX
HX  - HEAT INDEX




USA.gov is the U.S. government's official web portal to all federal, state and local government web resources and services.